Showing default

STRIX-4, 60352

Orbit data source: Space-Track

STRIX-4, 60352 is a payload satellite owned by Synspective (JP) in LEO that was launched on Fri, 02 Aug 2024 UTC via an ELECTRON launch vehicle from the Rocket Lab Launch Complex (RLLC). Payload-class satellites include a variety of spacecraft equipped with specific instruments for various scientific and technological missions. These include communications satellites like Starlink; space stations such as the ISS; scientific satellites like the Hubble; Earth observation satellites from companies like Planet Labs, Umbra, and HawkEye 360; GPS; miniature CubeSats for education and research; and military/defense satellites.

Loading next visibility...
Identifier
60352, 2024-137A
Orbit
LEO
Country
Flag of JPJP / JPN
Related business
Manufacturer
Synspective
Mission
Operational spacecraft
Bus & Motor
STRIX, Unknown motor
Mass
150 kg wet, 150 kg dry
Launch date (UTC)
2024-08-02 (1 year ago)
Launch vehicle
ELECTRON
Launch site
Rocket Lab Launch Complex (RLLC)
Object type
Payload
Rocket body
Debris
Shape & HBR
Unknown
Radar Cross Section
Medium (>0.1 m² and <1 m²)

Expand to show TLE details & history
Last TLE update: 8 hours ago

TLE from 8 hours ago
0 STRIX-4
1 60352U 24137A   25260.32413487  .00011974  00000-0  52858-3 0  9993
2 60352  43.0216  25.1195 0016202 312.0052  47.9418 15.21611956 62290
Epoch: 2025-09-17T07:46Z
TLE epoch observation values (Epoch: 2025-09-17T07:46:45.252Z)
Latitude
-0.00001°
Longitude
-88.07078°
Altitude
493.301 km
Speed
7.624 km/s
True Right ascension
01h 40m 28s
True Declination
0° 00' 00"
Sunlit
Object was in full shadow at epoch
Visualization orbit readout
Latitude
Unknown
Longitude
Unknown
Altitude
Unknown
Speed
Unknown
Apparent Right ascension
Unknown
Apparent Declination
Unknown
Sunlit
N/A
Visualization observer readout
Local Sidereal Time
08:45:05
Azimuth
Unknown
Elevation
Unknown
Doppler factor
Unknown
Orbital elements
Apogee altitude
514.063 km
Perigee altitude
491.766 km
Semi-major axis
6,881.051 km
Eccentricity
0.00162
Inclination
43.0216°
RAAN
25.1195°
Arg. of periapsis
312.0052°
True anomaly
48.07983°
Mean anomaly
47.9418°
Eccentric anomaly
48.0108°
Mean motion
3.80243 °/min
Orbital period
94.68 mins
BSTAR
0.00052858
Loading maneuver chart data...
Computing Atmospheric mass density...
Loading historical data...
Loading historical data...
Loading historical data...
Loading historical data...
Loading historical data...
Loading historical data...
Loading historical data...
Other satellites on launch #137 in the year 2024 (2024-08-02 UTC)

Documentation

Showing up to 5 results
|